Location: *
(51.1248°S, 108.4023°W)
Time: 03:58:47
(UTC+00:00)

Cosmos 2084 - Pass Details

Date: 15 June 2021
Orbit: 537 x 644 km, 62.8° (Epoch: 31 July)

Event Time Altitude Azimuth Distance (km) Brightness Sun altitude
Exits shadow 12:39:10 43° 176° (S) 836 4.1 -23.3°
Maximum altitude 12:39:54 48° 144° (SE) 775 4.1 -23.2°
Drops below altitude 10° 12:44:00 10° 69° (ENE) 1,875 7.1 -22.6°
Sets 12:46:15 0° 62° (ENE) 2,751 8.2 -22.2°
